Regional Weather Roundup
Issued by NWS

Home | Current Version | Previous Version | Graphics & Text | Print | Product List | Glossary On
Versions: 1 2 3 4 5 6 7 8 9 10 11 12 13 14 15 16 17 18 19 20 21 22 23 24 25 26 27 28 29 30 31 32 33 34 35 36 37 38 39 40 41 42 43 44 45 46 47 48 49 50
000
ASUS45 KTFX 282219
RWRMT
MONTANA HOURLY WEATHER ROUNDUP
NATIONAL WEATHER SERVICE GREAT FALLS MT
319 PM MST SAT FEB 28 2015

NOTE: "FAIR" INDICATES FEW OR NO CLOUDS BELOW 12000 FEET WITH NO
SIGNIFICANT WEATHER AND/OR OBSTRUCTIONS TO VISIBILITY.

* THESE STATIONS ARE NOT UNDER NWS QUALITY CONTROL. THEY DO NOT
   REPORT WEATHER SUCH AS PRECIPITATION OR FOG.

MTZ001>007-043-282300-
WEST OF THE DIVIDE
CITY           SKY/WX    TMP DP  RH WIND       PRES   REMARKS
KALISPELL      SUNNY     36   0  21 NE17      30.12F WCI  26
MISSOULA       SUNNY     32   7  35 CALM      30.09F
BUTTE          SUNNY     19   9  65 VRB5      29.96F WCI  12
MULLAN PASS    SUNNY     25   0  33 CALM      29.95S
* ANACONDA     SUNNY     21   3  45 NW3        N/A
* ESSEX        N/A       30  -1  26 SE6        N/A   WCI  24
* EUREKA APT   SUNNY     36   1  22 SE3       30.15F
* HAMILTON APT SUNNY     32   7  35 N7        30.03F WCI  25
* LIBBY APT    SUNNY     37  -2  19 E3        30.14F
* LINCOLN      N/A       29   2  31 NE5G11     N/A   WCI  24
* LOOKOUT PASS N/A       29  -1  27 NW4G10     N/A
* POLSON       N/A       33  -3  21 N3G9       N/A
* RONAN APT    SUNNY     34   5  29 NW9        N/A   WCI  27
* SEELEY LAKE  N/A       31   4  31 W4G9       N/A
* THOMP F APT  SUNNY     26   8  46 NW11G25    N/A   WCI  16
$$

MTZ008-052>055-282300-
SOUTHWEST MONTANA
CITY           SKY/WX    TMP DP  RH WIND       PRES   REMARKS
BOZEMAN        CLOUDY    25   7  46 VRB5      30.04S WCI  19
DILLON         PTSUNNY   25   7  46 N9        29.95S WCI  16
* W YELLOWSTON PTCLDY    29   5  36 NW3G10     N/A
* THREE FORKS  PTCLDY    27   7  42 N/A        N/A
* BOULDER HILL N/A       14   2  59 NE12       N/A
* MONIDA PASS  N/A       20   7  57 NW15G22    N/A   WCI   6
* RAYNOLDS PAS N/A        9   9 100 N19        N/A   WCI -10
* WHITEHALL    N/A       29   5  36 E9G18      N/A   WCI  21
* WISE RIVER   N/A       25   4  40 E12G27     N/A   WCI  14
$$

MTZ009>010-012-014-046-048-049-054-282300-
EAST SLOPES AND CENTRAL MONTANA
CITY           SKY/WX    TMP DP  RH WIND       PRES   REMARKS
CUT BANK       SUNNY     23   9  55 NW16      30.11F WCI  10
GREAT FALLS    PTSUNNY   23   9  55 W10       30.13F WCI  13
HELENA         PTCLDY   N/A N/A N/A NW7       30.10S
MALMSTROM AFB  PTSUNNY   21  10  62 W3        30.15F
* CONRAD       SUNNY     25  10  53 W8         N/A   WCI  16
* DEARBORN     N/A       22   6  50 VRB5       N/A   WCI  15
* EAST GLACIER N/A       19   1  45 E12        N/A   WCI   6
* MONARCH      N/A       11   2  67 NW12       N/A   WCI  -4
* PENDROY      N/A       21   7  55 N12G17     N/A   WCI   9
* ROGERS PASS  N/A       18   5  57 SE4G9      N/A
* SWEET GRASS  N/A       20   7  57 NW17       N/A   WCI   5
* WHITE SULPH  N/A       21   4  48 W7G12      N/A   WCI  12
$$

MTZ011-013-016-021-035-040-045-047-050-051-282300-
NORTH CENTRAL MONTANA
CITY           SKY/WX    TMP DP  RH WIND       PRES   REMARKS
HAVRE          SUNNY     25   9  50 SW14      30.15F WCI  13
LEWISTOWN      PTSUNNY   16   9  74 NW9       30.09S WCI   5
* N BAR RANCH  SUNNY     19   7  59 NW13G21   30.04S WCI   6
* CHINOOK      SUNNY     27   5  39 W20G28    30.15F WCI  13
* FORT BENTON  SUNNY     21   9  60 W6        30.18F WCI  13
* CHESTER      N/A       23   2  40 NW12G18    N/A   WCI  11
* DENTON       N/A       18   7  62 NW14       N/A   WCI   4
* GEYSER       N/A       15   5  64 W18G24     N/A   WCI  -2
* JUDITH GAP   N/A       14   9  80 N17        N/A   WCI  -2
* LOMA         N/A       22  10  60 SW7G14     N/A   WCI  13
$$

MTZ017>020-022>027-061-062-282300-
NORTHEAST MONTANA
CITY           SKY/WX    TMP DP  RH WIND       PRES   REMARKS
GLASGOW        SUNNY     25   3  38 NW14      30.13F WCI  13
GLENDIVE       SUNNY     19   5  54 W12       30.15R WCI   6
JORDAN         SUNNY     23   9  55 W16       30.14F WCI  10
SIDNEY         PTCLDY    19   3  49 W10       30.18S WCI   8
WOLF POINT     SUNNY     25   3  38 W13       30.16F WCI  13
* BEAVER HILL  N/A       17   5  59 W18G26     N/A   WCI   1
* CIRCLE       N/A       21   9  60 W14        N/A   WCI   8
* NAVAJO       N/A       14   1  56 NW16       N/A   WCI  -2
* PLENTYWOOD A SUNNY     12   3  67 NW14      30.10F WCI  -4
* POPLAR APT   SUNNY     21   1  41 W15G22    30.15F WCI   7
* SACO         N/A       25   1  35 W14G22     N/A   WCI  13
* SCOBEY APT   SUNNY     16  -6  37 W14G21     N/A   WCI   2
$$

MTZ028>042-056>058-282300-
SOUTHCENTRAL AND SOUTHEAST MONTANA
CITY           SKY/WX    TMP DP  RH WIND       PRES   REMARKS
BAKER          CLOUDY    19   5  54 NW20G26   30.11S WCI   3
BILLINGS       PTSUNNY   27   7  42 W6        30.08F WCI  20
LIVINGSTON     PTCLDY    23   7  50 NW3       30.02S
MILES CITY     PTSUNNY   21   7  55 NW16      30.15S WCI   7
* BIG TIMBER A PTCLDY    21   7  55 W6        30.04S WCI  13
* FORSYTH APT  SUNNY     21   9  60 W8G20     30.16R WCI  11
* LAUREL APT   SUNNY     25   3  38 N/A        N/A
* ROUNDUP APT  SUNNY     25   7  46 N7         N/A   WCI  17
* ALZADA       N/A       19  10  68 W10        N/A   WCI   8
* HYSHAM       N/A       22   8  55 NW3G8      N/A
* LAME DEER    N/A       14   6  70 W7G13      N/A   WCI   4
* REED POINT   N/A       26   9  48 SE1        N/A
* ROSCOE HILL  N/A       26   0  32 N/A        N/A
$$

REGIONAL REPORTS...DAKOTAS
CITY           SKY/WX    TMP DP  RH WIND       PRES   REMARKS
WILLISTON      CLOUDY    16   5  62 NW9       30.15F WCI   5
DICKINSON      CLOUDY    19   3  49 W20G26    30.08R WCI   3
BEACH          CLOUDY    19   7  59 NW22      30.11S WCI   2
CROSBY         CLOUDY    10   3  73 NW12      30.14S WCI  -5
TIOGA          PTSUNNY   10   7  88 NW14      30.14R WCI  -6
WATFORD CITY   PTSUNNY   14   3  61 NW12      30.13R
BISMARCK       SUNNY     19   5  54 NW14G21   30.15R WCI   5
GRAND FORKS    CLOUDY    21  14  74 SW18      30.11S WCI   6
FARGO          CLOUDY    27  14  58 S21       30.15S WCI  13
BUFFALO SD     SUNNY     19   7  59 NW18      30.03R WCI   4
RAPID CITY     SUNNY     21  10  62 N18       30.09R WCI   6
$$

REGIONAL REPORTS...WYOMING/IDAHO/WASHINGTON
CITY           SKY/WX    TMP DP  RH WIND       PRES   REMARKS
GILLETTE       PTCLDY    19   7  59 N10       30.04S WCI   8
SHERIDAN       CLOUDY    19   7  59 W5        30.08S WCI  12
CODY           PTCLDY    19  10  68 N7        29.98S WCI  10
YELLOWSTONE LA PTCLDY    21   7  55 E5        29.78S WCI  14
SALMON         PTCLDY    36  12  37 SE5       29.92S WCI  32
MULLAN PASS    SUNNY     25   0  33 CALM      29.95S
SAND POINT     SUNNY     41   0  18 N10G16    30.12F
SPOKANE        SUNNY     41   3  20 N16       30.10R
$$

REGIONAL REPORTS...ALBERTA
CITY           SKY/WX    TMP DP  RH WIND       PRES   REMARKS
CALGARY        PTSUNNY   28  14  56 N17G23    30.11S WCI  16
LETHBRIDGE     PTSUNNY   28   9  45 NW23G31   30.14F WCI  14
MEDICINE HAT   PTSUNNY   25  18  75 W13G20    30.14F WCI  13
EDMONTON       PTCLDY    27  14  58 NW12      30.13F WCI  16
WATERTON GATE  N/A       32   3  29 N2         N/A
CARDSTON       N/A       25  10  53 NW8        N/A   WCI  16
MILK RIVER     N/A       23  12  63 W14        N/A   WCI  10
$$

REGIONAL REPORTS...SASKATCHEWAN
CITY           SKY/WX    TMP DP  RH WIND       PRES   REMARKS
SWIFT CURRENT  LGT SNOW  18  10  71 NW21      30.04F WCI   1
REGINA         CLOUDY    12   7  80 W17       30.08F WCI  -5
VAL MARIE      N/A       23   3  42 NW16G22    N/A   WCI  10
ASSINIBOIA     N/A       16   5  62 W16        N/A   WCI   1
CORONACH       N/A       16   3  56 NW13       N/A   WCI   2

$$



USA.gov is the U.S. government's official web portal to all federal, state and local government web resources and services.